Weather History for Leeming, United Kingdom

Change the Weather History Date:

Monday, January 7, 2013

  Actual Average (EGNV) Record (EGNV)
Temperature  
Mean Temperature 47 °F -  
Max Temperature 52 °F 43 °F 55 °F (2005)
Min Temperature 42 °F 33 °F 19 °F (2011)
Degree Days  
Heating Degree Days 18    
Moisture  
Dew Point 44 °F    
Average Humidity 88    
Maximum Humidity 100    
Minimum Humidity 79    
Precipitation  
Precipitation 0.00 in 0.07 in - ()
Sea Level Pressure  
Sea Level Pressure 30.15 in    
Wind  
Wind Speed 7 mph ()    
Max Wind Speed 15 mph    
Max Gust Speed -    
Visibility 5.6 miles    
Events      
Averages and records for this station are not official NWS values.
T = Trace of Precipitation, MM = Missing Value Source: Averaged Metar Reports

Daily Weather History Graph

Daily Weather History Graph

Search for Another Location

Airport:

Trip Planner

Search our weather history database for the weather conditions in past years. The results will help you decide how hot, cold, wet, or windy it might be!

Date:

Astronomy

Jan. 07, 2013 Rise Set
Actual Time 8:24 AM GMT 4:00 PM GMT
Civil Twilight 7:41 AM GMT 4:44 PM GMT
Nautical Twilight 6:55 AM GMT 5:29 PM GMT
Astronomical Twilight 6:12 AM GMT 6:13 PM GMT
Moon 3:17 AM GMT (1/7) 12:11 PM GMT (1/7)
Length of Visible Light 9h 02m
Length of Day
7h 36m
Waning Crescent, 25% of the Moon is Illuminated
Jan 7
Waning Crescent
Jan 11
New
Jan 18
First Quarter
Jan 27
Full
Feb 3
Last Quarter

Hourly Weather History & Observations

Time (GMT) Temp. Windchill Dew Point Humidity Pressure Visibility Wind Dir Wind Speed Gust Speed Precip Events Conditions
12:50 AM 44.6 °F 41.4 °F 42.8 °F 93% 30.24 in 4.3 mi SSE 5.8 mph - N/A   Haze
1:50 AM 44.6 °F 40.2 °F 42.8 °F 93% 30.24 in 3.7 mi SSE 8.1 mph - N/A   Overcast
2:50 AM 44.6 °F 40.7 °F 42.8 °F 93% 30.24 in 4.3 mi SSE 6.9 mph - N/A   Haze
3:50 AM 46.4 °F 41.9 °F 42.8 °F 87% 30.21 in 5.0 mi South 9.2 mph - N/A   Haze
4:50 AM 46.4 °F 42.9 °F 42.8 °F 87% 30.21 in 5.0 mi SSE 6.9 mph - N/A   Haze
5:50 AM 44 °F - 43 °F 93% 30.22 in 4 mi SE 3.5 mph - -   Haze
5:50 AM 44.6 °F 43.1 °F 42.8 °F 93% 30.21 in 4.3 mi SE 3.5 mph - N/A   Haze
6:50 AM 46.4 °F 42.9 °F 42.8 °F 87% 30.18 in 4.3 mi SSE 6.9 mph - N/A   Haze
7:50 AM 44.6 °F 41.4 °F 42.8 °F 93% 30.18 in 5.6 mi SSE 5.8 mph - N/A   Mostly Cloudy
8:50 AM 43 °F - 42 °F 96% 30.20 in 3 mi SSE 8.1 mph - -   Mist
8:50 AM 42.8 °F 38.0 °F 42.8 °F 100% 30.18 in 3.1 mi SSE 8.1 mph - N/A   Mostly Cloudy
9:50 AM 44.6 °F 40.2 °F 42.8 °F 93% 30.18 in 3.7 mi SSE 8.1 mph - N/A   Mostly Cloudy
10:50 AM 46.4 °F 41.5 °F 44.6 °F 93% 30.18 in 5.0 mi South 10.4 mph - N/A   Mostly Cloudy
11:50 AM 49 °F - 45 °F 80% 30.17 in 6 mi SSE 6.9 mph - -   Partly Cloudy
11:50 AM 48.2 °F - 44.6 °F 87% 30.15 in 6.2 mi SSE 6.9 mph - N/A   Mostly Cloudy
12:50 PM 48.2 °F - 44.6 °F 87% 30.15 in 6.2 mi SSE 9.2 mph - N/A   Mostly Cloudy
1:50 PM 48.2 °F - 44.6 °F 87% 30.12 in 6.2 mi South 15.0 mph - N/A   Mostly Cloudy
2:50 PM 49 °F - 44 °F 79% 30.13 in 14 mi SSE 10.4 mph - -   Partly Cloudy
2:50 PM 48.2 °F - 44.6 °F 87% 30.12 in 6.2 mi SSE 10.4 mph - N/A   Mostly Cloudy
3:50 PM 50.0 °F - 44.6 °F 82% 30.09 in 6.2 mi SSE 10.4 mph - N/A   Mostly Cloudy
4:50 PM 50.0 °F - 44.6 °F 82% 30.09 in 6.2 mi South 9.2 mph - N/A   Mostly Cloudy
5:50 PM 49 °F - 45 °F 82% 30.12 in 9 mi South 9.2 mph - -   Scattered Clouds
5:50 PM 50.0 °F - 44.6 °F 82% 30.09 in 6.2 mi South 9.2 mph - N/A   Mostly Cloudy
6:50 PM 50.0 °F - 44.6 °F 82% 30.12 in 6.2 mi SE 5.8 mph - N/A   Mostly Cloudy
7:50 PM 50.0 °F - 44.6 °F 82% 30.09 in 6.2 mi SSE 5.8 mph - N/A   Mostly Cloudy
8:50 PM 48 °F - 45 °F 86% 30.12 in 6 mi ESE 4.6 mph - -   Light Haze
8:50 PM 48.2 °F - 44.6 °F 87% 30.09 in 5.6 mi ESE 4.6 mph - N/A   Haze
9:50 PM 50.0 °F - 44.6 °F 82% 30.09 in 6.2 mi SSW 10.4 mph - N/A   Mostly Cloudy
10:50 PM 50.0 °F - 46.4 °F 87% 30.09 in 5.6 mi South 5.8 mph - N/A   Mostly Cloudy
11:50 PM 48 °F - 45 °F 86% 30.12 in 5 mi NE 3.5 mph - -   Light Haze
11:50 PM 48.2 °F - 44.6 °F 87% 30.09 in 5.0 mi NE 3.5 mph - N/A   Haze